This is the latest recevied weather packets stored in our database for station/object DD3UTS-13. If no packets are shown the sender has not sent any weather packets the latest 10 day(s).
| Time | Temp. | Humidity | Pressure | Rain* | Wind** | Luminosity | Snow |
|---|---|---|---|---|---|---|---|
| 1778163031 | 9.44° C | 89% | 1012.5 hPa | 11.43 mm | - | 107 W/m² | - |
| 1778162731 | 9.44° C | 89% | 1012.4 hPa | 11.43 mm | - | 107 W/m² | - |
| 1778162432 | 9.44° C | 89% | 1012.4 hPa | 11.43 mm | - | 79 W/m² | - |
| 1778162131 | 9.44° C | 89% | 1012.4 hPa | 11.18 mm | - | 77 W/m² | - |
| 1778161832 | 9.44° C | 89% | 1012.3 hPa | 11.18 mm | - | 80 W/m² | - |
| 1778161532 | 9.44° C | 89% | 1012.3 hPa | 11.18 mm | - | 94 W/m² | - |
| 1778161232 | 9.44° C | 89% | 1012.2 hPa | 10.92 mm | - | 115 W/m² | - |
| 1778160931 | 9.44° C | 89% | 1012.2 hPa | 10.67 mm | - | 59 W/m² | - |
| 1778160632 | 9.44° C | 89% | 1012.2 hPa | 10.41 mm | - | 57 W/m² | - |
| 1778160333 | 9.44° C | 89% | 1012.3 hPa | 10.41 mm | - | 55 W/m² | - |
| 1778160032 | 10° C | 89% | 1012.3 hPa | 9.91 mm | - | 77 W/m² | - |
| 1778159731 | 10° C | 89% | 1012.3 hPa | 9.91 mm | - | 93 W/m² | - |
| 1778159432 | 9.44° C | 89% | 1012.2 hPa | 9.65 mm | - | 125 W/m² | - |
| 1778159132 | 9.44° C | 88% | 1012.2 hPa | 9.4 mm | - | 95 W/m² | - |
| 1778158831 | 9.44° C | 88% | 1012.2 hPa | 8.89 mm | - | 71 W/m² | - |
| 1778158531 | 10° C | 88% | 1012.1 hPa | 8.38 mm | - | 54 W/m² | - |
| 1778158232 | 10° C | 88% | 1012 hPa | 8.38 mm | - | 64 W/m² | - |
| 1778157932 | 10.56° C | 88% | 1011.9 hPa | 8.13 mm | - | 82 W/m² | - |
| 1778157631 | 10° C | 88% | 1011.8 hPa | 7.62 mm | - | 89 W/m² | - |
| 1778157331 | 10.56° C | 89% | 1011.8 hPa | 7.62 mm | - | 138 W/m² | - |
| 1778157032 | 10.56° C | 89% | 1011.7 hPa | 7.62 mm | - | 136 W/m² | - |
| 1778156732 | 10.56° C | 88% | 1011.7 hPa | 7.37 mm | - | 75 W/m² | - |
| 1778156432 | 10.56° C | 88% | 1011.6 hPa | 7.11 mm | - | 85 W/m² | - |
| 1778156131 | 10.56° C | 89% | 1011.5 hPa | 7.11 mm | - | 91 W/m² | - |
| 1778155832 | 10.56° C | 89% | 1011.5 hPa | 7.11 mm | - | 128 W/m² | - |
* Rain latest 24 hours (hover to see other rain measurements)
** Current wind speed in m/s (hover to see current wind gust speed)